sat.trackr.live / text

‹ back to catalog

STARLINK-3760

NORAD 52298 · 2022-041AP

PAYLOAD ACTIVE UNKNOWN

§ Identity

Operator
Country
US
Launch date
2022-04-21
Launch site
AFETR
Launch vehicle
Mass (kg)
RCS (m²)

Purposes: comms

External: N2YO · Heavens-Above · Gunter

§ Orbital elements

Epoch: 2026-05-25T04:50:25.113984Z

Period
95.44 min
Inclination
53.2124°
Eccentricity
0.0001805
Mean motion
15.08844773 rev/d
Perigee alt
538.5 km
Apogee alt
541.0 km
Semi-major
6,917.9 km
B*
-8.1043e-5
RAAN
115.2572°
Arg perigee
84.5612°
Mean anomaly
275.5586°
Rev number
22,606

§ Raw data

STARLINK-37601 52298U 22041AP  26145.20167956 -.00001578  00000+0 -81043-4 0  99912 52298  53.2124 115.2572 0001805  84.5612 275.5586 15.08844773226069

JSON: /api/v1/satellites/52298 · /tle

For live sub-satellite position, see the globe view (requires WebGL).

§ Visibility from observer

Set your observer location to see the next 7 days of passes ≥ 10°. The values pass through the URL so the page stays shareable.

No JS? Fill the form by hand. The geolocation button needs JavaScript.